| time (UTC) | temp C | wind direction | speed KPH | gust KPH | rain 1hr cm | rain 24hr cm | rain mn cm | humidity % | barometer mb |
| 20260506081141 | 17 | 23 | 0.0 | 3.2 | 0.00 | 0.00 | 0.00 | 63 | 1011.3 |
| 20260506080638 | 17 | 106 | 1.6 | 3.2 | 0.00 | 0.00 | 0.00 | 63 | 1011.3 |
| 20260506080135 | 17 | 112 | 3.2 | 3.2 | 0.00 | 0.00 | 0.00 | 63 | 1011.5 |
| 20260506073119 | 17 | 29 | 1.6 | 4.8 | 0.00 | 0.00 | 0.00 | 61 | 1011.5 |
| 20260506072615 | 17 | 344 | 3.2 | 8.0 | 0.00 | 0.00 | 0.00 | 61 | 1011.7 |
| 20260506072114 | 17 | 290 | 3.2 | 11.3 | 0.00 | 0.00 | 0.00 | 61 | 1011.5 |
| 20260506071611 | 17 | 121 | 4.8 | 4.8 | 0.00 | 0.00 | 0.00 | 61 | 1011.5 |
| 20260506071108 | 17 | 65 | 3.2 | 8.0 | 0.00 | 0.00 | 0.00 | 61 | 1011.5 |
| 20260506070605 | 17 | 42 | 1.6 | 4.8 | 0.00 | 0.00 | 0.00 | 60 | 1011.6 |
| 20260506062039 | 17 | 18 | 4.8 | 11.3 | 0.00 | 0.00 | 0.00 | 59 | 1012.0 |
| 20260506061535 | 17 | 160 | 6.4 | 11.3 | 0.00 | 0.00 | 0.00 | 59 | 1011.8 |
| 20260506061033 | 17 | 20 | 3.2 | 8.0 | 0.00 | 0.00 | 0.00 | 60 | 1012.2 |
| 20260506060531 | 17 | 72 | 0.0 | 3.2 | 0.00 | 0.00 | 0.00 | 61 | 1012.0 |
| 20260506051000 | 17 | 23 | 0.0 | 3.2 | 0.00 | 0.00 | 0.00 | 61 | 1012.2 |
| 20260506050458 | 17 | 83 | 1.6 | 3.2 | 0.00 | 0.00 | 0.00 | 61 | 1012.2 |
| 20260506044948 | 17 | 14 | 1.6 | 8.0 | 0.00 | 0.00 | 0.00 | 60 | 1012.6 |
| 20260506044446 | 16 | 21 | 0.0 | 8.0 | 0.00 | 0.00 | 0.00 | 61 | 1012.7 |
| 20260506043943 | 16 | 31 | 0.0 | 3.2 | 0.00 | 0.00 | 0.00 | 61 | 1012.5 |
| 20260506043440 | 17 | 174 | 4.8 | 4.8 | 0.00 | 0.00 | 0.00 | 61 | 1012.5 |
| 20260506042938 | 17 | 33 | 0.0 | 1.6 | 0.00 | 0.00 | 0.00 | 61 | 1012.7 |
| 20260506042437 | 17 | 12 | 0.0 | 3.2 | 0.00 | 0.00 | 0.00 | 61 | 1012.7 |
| 20260506041935 | 17 | 29 | 0.0 | 3.2 | 0.00 | 0.00 | 0.00 | 60 | 1012.6 |
| 20260506041432 | 17 | 0 | 0.0 | 4.8 | 0.00 | 0.00 | 0.00 | 61 | 1012.5 |
| 20260506040929 | 17 | 61 | 1.6 | 4.8 | 0.00 | 0.00 | 0.00 | 59 | 1012.7 |
| 20260506040427 | 17 | 25 | 0.0 | 1.6 | 0.00 | 0.00 | 0.00 | 60 | 1012.6 |
| 20260506035923 | 17 | 40 | 0.0 | 4.8 | 0.00 | 0.08 | 0.08 | 59 | 1012.7 |
| 20260506035420 | 17 | 24 | 1.6 | 3.2 | 0.00 | 0.08 | 0.08 | 58 | 1012.8 |
| 20260506034917 | 17 | 57 | 0.0 | 4.8 | 0.00 | 0.08 | 0.08 | 58 | 1012.7 |
| 20260506034414 | 17 | 51 | 0.0 | 1.6 | 0.00 | 0.08 | 0.08 | 59 | 1012.7 |
| 20260506033911 | 17 | 24 | 1.6 | 3.2 | 0.00 | 0.08 | 0.08 | 57 | 1012.8 |
| 20260506033409 | 17 | 44 | 0.0 | 1.6 | 0.00 | 0.08 | 0.08 | 57 | 1012.7 |
| 20260506032905 | 17 | 49 | 0.0 | 1.6 | 0.00 | 0.08 | 0.08 | 57 | 1012.7 |
| 20260506032402 | 17 | 29 | 0.0 | 4.8 | 0.00 | 0.08 | 0.08 | 57 | 1012.7 |
| 20260506031859 | 17 | 13 | 0.0 | 3.2 | 0.00 | 0.08 | 0.08 | 57 | 1012.4 |
| 20260506031356 | 17 | 48 | 0.0 | 0.0 | 0.00 | 0.08 | 0.08 | 57 | 1012.5 |
| 20260506030854 | 17 | 49 | 0.0 | 1.6 | 0.00 | 0.08 | 0.08 | 56 | 1012.5 |
| 20260506030352 | 18 | 40 | 0.0 | 0.0 | 0.00 | 0.08 | 0.08 | 56 | 1012.6 |
| 20260506025848 | 18 | 76 | 1.6 | 3.2 | 0.00 | 0.08 | 0.08 | 54 | 1012.4 |
| 20260506025344 | 18 | 31 | 0.0 | 1.6 | 0.00 | 0.08 | 0.08 | 55 | 1012.4 |
| 20260506024842 | 18 | 46 | 1.6 | 8.0 | 0.00 | 0.08 | 0.08 | 54 | 1012.5 |
| 20260506024338 | 18 | 124 | 4.8 | 9.7 | 0.00 | 0.08 | 0.08 | 55 | 1012.6 |
| 20260506023835 | 18 | 42 | 0.0 | 1.6 | 0.00 | 0.08 | 0.08 | 55 | 1012.5 |
| 20260506023331 | 19 | 37 | 1.6 | 4.8 | 0.00 | 0.08 | 0.08 | 53 | 1012.5 |
| 20260506022828 | 19 | 54 | 1.6 | 3.2 | 0.00 | 0.08 | 0.08 | 54 | 1012.5 |
| 20260506022326 | 19 | 32 | 0.0 | 4.8 | 0.00 | 0.08 | 0.08 | 53 | 1012.4 |
| 20260506021824 | 19 | 39 | 0.0 | 1.6 | 0.00 | 0.08 | 0.08 | 54 | 1012.5 |
| 20260506021321 | 20 | 49 | 0.0 | 3.2 | 0.00 | 0.08 | 0.08 | 53 | 1012.5 |
| 20260506020817 | 20 | 39 | 0.0 | 8.0 | 0.00 | 0.08 | 0.08 | 52 | 1012.5 |
| 20260506020315 | 20 | 115 | 8.0 | 9.7 | 0.00 | 0.08 | 0.08 | 50 | 1012.5 |
| 20260506015813 | 20 | 210 | 1.6 | 3.2 | 0.00 | 0.08 | 0.08 | 51 | 1012.3 |
| 20260506015310 | 20 | 101 | 4.8 | 8.0 | 0.00 | 0.08 | 0.08 | 50 | 1012.3 |
| 20260506014806 | 20 | 46 | 0.0 | 9.7 | 0.00 | 0.08 | 0.08 | 51 | 1012.4 |
| 20260506014303 | 20 | 35 | 0.0 | 3.2 | 0.00 | 0.08 | 0.08 | 52 | 1012.5 |
| 20260506013800 | 20 | 314 | 1.6 | 3.2 | 0.00 | 0.08 | 0.08 | 52 | 1012.2 |
| 20260506013257 | 20 | 338 | 1.6 | 3.2 | 0.00 | 0.08 | 0.08 | 51 | 1012.3 |
| 20260506012754 | 20 | 62 | 1.6 | 4.8 | 0.00 | 0.08 | 0.08 | 51 | 1012.2 |
| 20260506012251 | 20 | 93 | 0.0 | 3.2 | 0.00 | 0.08 | 0.08 | 50 | 1012.1 |
| 20260506011748 | 20 | 22 | 1.6 | 3.2 | 0.00 | 0.08 | 0.08 | 50 | 1012.2 |
| 20260506011244 | 20 | 71 | 1.6 | 3.2 | 0.00 | 0.08 | 0.08 | 49 | 1012.1 |
| 20260506010743 | 20 | 33 | 0.0 | 3.2 | 0.00 | 0.08 | 0.08 | 50 | 1011.8 |
| 20260506010240 | 20 | 44 | 0.0 | 3.2 | 0.00 | 0.08 | 0.08 | 50 | 1011.9 |
| 20260506005737 | 20 | 43 | 0.0 | 3.2 | 0.00 | 0.08 | 0.08 | 51 | 1012.0 |
| 20260506005233 | 20 | 359 | 1.6 | 3.2 | 0.00 | 0.08 | 0.08 | 48 | 1011.7 |
| 20260506004729 | 20 | 39 | 0.0 | 0.0 | 0.00 | 0.08 | 0.08 | 49 | 1012.0 |
| 20260506004227 | 21 | 89 | 1.6 | 4.8 | 0.00 | 0.08 | 0.08 | 47 | 1012.0 |
| 20260506003723 | 21 | 38 | 0.0 | 1.6 | 0.00 | 0.08 | 0.08 | 48 | 1012.0 |
| 20260506003220 | 21 | 45 | 3.2 | 4.8 | 0.00 | 0.08 | 0.08 | 47 | 1011.8 |
| 20260506002715 | 21 | 25 | 0.0 | 1.6 | 0.00 | 0.08 | 0.08 | 47 | 1011.7 |
| 20260506002212 | 21 | 42 | 0.0 | 4.8 | 0.00 | 0.08 | 0.08 | 47 | 1011.4 |
| 20260506001708 | 21 | 27 | 3.2 | 9.7 | 0.00 | 0.08 | 0.08 | 47 | 1011.7 |
| 20260506001206 | 21 | 3 | 1.6 | 8.0 | 0.00 | 0.08 | 0.08 | 47 | 1011.5 |
| 20260506000702 | 21 | 40 | 0.0 | 4.8 | 0.00 | 0.08 | 0.08 | 48 | 1011.4 |
| 20260506000200 | 21 | 13 | 1.6 | 3.2 | 0.00 | 0.08 | 0.08 | 47 | 1011.5 |
| 20260505235657 | 21 | 54 | 0.0 | 8.0 | 0.00 | 0.08 | 0.08 | 48 | 1011.5 |
| 20260505235155 | 21 | 25 | 0.0 | 1.6 | 0.00 | 0.08 | 0.08 | 47 | 1011.5 |
| 20260505234651 | 21 | 204 | 1.6 | 1.6 | 0.00 | 0.08 | 0.08 | 46 | 1011.4 |
| 20260505234149 | 21 | 10 | 1.6 | 4.8 | 0.00 | 0.08 | 0.08 | 46 | 1011.3 |
| 20260505233645 | 21 | 5 | 1.6 | 3.2 | 0.00 | 0.08 | 0.08 | 47 | 1011.2 |
| 20260505233143 | 21 | 307 | 3.2 | 4.8 | 0.00 | 0.08 | 0.08 | 47 | 1011.3 |
| 20260505232640 | 21 | 188 | 8.0 | 11.3 | 0.00 | 0.08 | 0.08 | 45 | 1011.1 |
| 20260505232138 | 21 | 349 | 8.0 | 9.7 | 0.00 | 0.08 | 0.08 | 46 | 1011.5 |
| 20260505231634 | 21 | 29 | 0.0 | 4.8 | 0.00 | 0.08 | 0.08 | 48 | 1011.4 |
| 20260505231133 | 21 | 34 | 0.0 | 3.2 | 0.00 | 0.08 | 0.08 | 51 | 1011.3 |
| 20260505230631 | 21 | 358 | 1.6 | 4.8 | 0.00 | 0.08 | 0.08 | 49 | 1011.3 |
| 20260505230127 | 21 | 24 | 1.6 | 3.2 | 0.00 | 0.08 | 0.08 | 49 | 1011.2 |
| 20260505225623 | 21 | 64 | 1.6 | 3.2 | 0.00 | 0.08 | 0.08 | 48 | 1011.3 |
| 20260505225120 | 21 | 44 | 0.0 | 3.2 | 0.00 | 0.08 | 0.08 | 50 | 1011.2 |
| 20260505224616 | 21 | 41 | 0.0 | 3.2 | 0.00 | 0.08 | 0.08 | 51 | 1011.0 |
| 20260505224114 | 22 | 36 | 0.0 | 3.2 | 0.00 | 0.08 | 0.08 | 46 | 1011.0 |
| 20260505223611 | 22 | 8 | 3.2 | 9.7 | 0.00 | 0.08 | 0.08 | 47 | 1011.2 |
| 20260505223107 | 22 | 284 | 6.4 | 8.0 | 0.00 | 0.08 | 0.08 | 47 | 1011.0 |
| 20260505222603 | 21 | 6 | 1.6 | 3.2 | 0.00 | 0.08 | 0.08 | 49 | 1011.1 |
| 20260505222059 | 21 | 17 | 1.6 | 9.7 | 0.00 | 0.08 | 0.08 | 51 | 1011.1 |
| 20260505221557 | 21 | 27 | 0.0 | 4.8 | 0.00 | 0.08 | 0.08 | 54 | 1011.1 |
| 20260505221053 | 21 | 42 | 0.0 | 3.2 | 0.00 | 0.08 | 0.08 | 55 | 1011.2 |
| 20260505220550 | 21 | 31 | 0.0 | 0.0 | 0.00 | 0.08 | 0.08 | 56 | 1011.0 |
| 20260505220048 | 21 | 40 | 0.0 | 1.6 | 0.00 | 0.08 | 0.08 | 53 | 1010.9 |
| 20260505215546 | 21 | 7 | 1.6 | 1.6 | 0.00 | 0.08 | 0.08 | 52 | 1010.8 |
| 20260505215044 | 21 | 31 | 1.6 | 3.2 | 0.00 | 0.08 | 0.08 | 52 | 1011.0 |
| 20260505214542 | 21 | 12 | 1.6 | 1.6 | 0.00 | 0.08 | 0.08 | 52 | 1010.9 |
| 20260505214038 | 21 | 21 | 0.0 | 1.6 | 0.00 | 0.08 | 0.08 | 50 | 1011.0 |
| 20260505213536 | 22 | 196 | 3.2 | 8.0 | 0.00 | 0.08 | 0.08 | 50 | 1010.9 |
| 20260505213032 | 21 | 72 | 1.6 | 8.0 | 0.00 | 0.08 | 0.08 | 51 | 1010.9 |
| 20260505212529 | 22 | 178 | 6.4 | 14.5 | 0.00 | 0.08 | 0.08 | 50 | 1011.1 |
| 20260505212026 | 22 | 19 | 9.7 | 11.3 | 0.00 | 0.08 | 0.08 | 48 | 1011.2 |
| 20260505211523 | 22 | 178 | 4.8 | 11.3 | 0.00 | 0.08 | 0.08 | 44 | 1010.8 |
| 20260505211019 | 23 | 16 | 3.2 | 14.5 | 0.00 | 0.08 | 0.08 | 43 | 1010.4 |
| 20260505210516 | 23 | 12 | 4.8 | 8.0 | 0.00 | 0.08 | 0.08 | 41 | 1010.3 |
| 20260505210014 | 23 | 191 | 6.4 | 12.9 | 0.00 | 0.08 | 0.08 | 40 | 1010.1 |
| 20260505205512 | 23 | 168 | 8.0 | 11.3 | 0.00 | 0.08 | 0.08 | 43 | 1010.2 |
| 20260505205008 | 23 | 340 | 4.8 | 11.3 | 0.00 | 0.08 | 0.08 | 42 | 1010.5 |
| 20260505204506 | 23 | 212 | 4.8 | 8.0 | 0.00 | 0.08 | 0.08 | 41 | 1010.1 |
| 20260505204003 | 23 | 170 | 6.4 | 9.7 | 0.00 | 0.08 | 0.08 | 40 | 1010.2 |
| 20260505203459 | 23 | 60 | 4.8 | 8.0 | 0.00 | 0.08 | 0.08 | 39 | 1010.2 |
| 20260505202956 | 23 | 108 | 1.6 | 3.2 | 0.00 | 0.08 | 0.08 | 42 | 1010.2 |
| 20260505202453 | 23 | 322 | 6.4 | 9.7 | 0.00 | 0.08 | 0.08 | 40 | 1010.1 |
| 20260505201948 | 24 | 268 | 6.4 | 12.9 | 0.00 | 0.08 | 0.08 | 40 | 1010.1 |
| 20260505201446 | 24 | 130 | 3.2 | 8.0 | 0.00 | 0.08 | 0.08 | 39 | 1010.0 |
| 20260505200943 | 24 | 43 | 1.6 | 11.3 | 0.00 | 0.08 | 0.08 | 40 | 1010.1 |
| 20260505200441 | 25 | 11 | 3.2 | 11.3 | 0.00 | 0.08 | 0.08 | 40 | 1010.1 |
| 20260505195936 | 26 | 41 | 3.2 | 14.5 | 0.00 | 0.08 | 0.08 | 37 | 1010.1 |
| 20260505195434 | 26 | 300 | 4.8 | 14.5 | 0.00 | 0.08 | 0.08 | 36 | 1010.3 |
| 20260505194931 | 26 | 178 | 9.7 | 11.3 | 0.00 | 0.08 | 0.08 | 35 | 1010.2 |
| 20260505194428 | 26 | 348 | 3.2 | 9.7 | 0.00 | 0.08 | 0.08 | 38 | 1010.0 |
| 20260505193928 | 26 | 179 | 8.0 | 14.5 | 0.00 | 0.08 | 0.08 | 35 | 1010.0 |
| 20260505193426 | 25 | 25 | 8.0 | 16.1 | 0.00 | 0.08 | 0.08 | 37 | 1010.3 |
| 20260505192924 | 25 | 284 | 6.4 | 11.3 | 0.00 | 0.08 | 0.08 | 39 | 1010.4 |
| 20260505192422 | 25 | 341 | 4.8 | 9.7 | 0.00 | 0.08 | 0.08 | 40 | 1010.4 |
| 20260505191919 | 25 | 276 | 6.4 | 14.5 | 0.00 | 0.08 | 0.08 | 39 | 1010.7 |
| 20260505191418 | 25 | 307 | 6.4 | 22.5 | 0.00 | 0.08 | 0.08 | 41 | 1010.7 |
| 20260505190914 | 25 | 207 | 8.0 | 14.5 | 0.00 | 0.08 | 0.08 | 37 | 1010.8 |
| 20260505190409 | 25 | 183 | 3.2 | 14.5 | 0.00 | 0.08 | 0.08 | 40 | 1011.0 |
| 20260505185905 | 26 | 276 | 8.0 | 16.1 | 0.00 | 0.08 | 0.08 | 39 | 1010.8 |
| 20260505185402 | 25 | 310 | 3.2 | 9.7 | 0.00 | 0.08 | 0.08 | 40 | 1011.0 |
| 20260505184858 | 25 | 29 | 6.4 | 12.9 | 0.00 | 0.08 | 0.08 | 39 | 1010.9 |
| 20260505184355 | 26 | 344 | 8.0 | 16.1 | 0.00 | 0.08 | 0.08 | 41 | 1011.0 |
| 20260505183852 | 25 | 356 | 3.2 | 14.5 | 0.00 | 0.08 | 0.08 | 38 | 1011.2 |
| 20260505183349 | 25 | 304 | 6.4 | 32.2 | 0.00 | 0.08 | 0.08 | 37 | 1011.3 |
| 20260505182846 | 25 | 46 | 3.2 | 32.2 | 0.00 | 0.08 | 0.08 | 41 | 1011.1 |
| 20260505182343 | 25 | 276 | 4.8 | 9.7 | 0.00 | 0.08 | 0.08 | 42 | 1011.4 |
| 20260505181840 | 25 | 213 | 9.7 | 12.9 | 0.00 | 0.08 | 0.08 | 39 | 1011.2 |
| 20260505181337 | 26 | 90 | 4.8 | 20.9 | 0.00 | 0.08 | 0.08 | 40 | 1011.3 |
| 20260505180833 | 25 | 76 | 4.8 | 16.1 | 0.00 | 0.08 | 0.08 | 42 | 1011.4 |
| 20260505180330 | 25 | 85 | 4.8 | 14.5 | 0.00 | 0.08 | 0.08 | 41 | 1011.5 |
| 20260505175826 | 26 | 240 | 6.4 | 12.9 | 0.00 | 0.08 | 0.08 | 40 | 1011.5 |
| 20260505175323 | 26 | 289 | 6.4 | 12.9 | 0.00 | 0.08 | 0.08 | 39 | 1011.4 |
| 20260505174819 | 25 | 199 | 9.7 | 12.9 | 0.00 | 0.08 | 0.08 | 39 | 1011.6 |
| 20260505174317 | 25 | 172 | 11.3 | 20.9 | 0.00 | 0.08 | 0.08 | 43 | 1011.4 |
| 20260505173813 | 25 | 357 | 3.2 | 12.9 | 0.00 | 0.08 | 0.08 | 42 | 1011.6 |
| 20260505173309 | 25 | 253 | 6.4 | 9.7 | 0.00 | 0.08 | 0.08 | 42 | 1011.5 |
| 20260505172807 | 25 | 274 | 9.7 | 14.5 | 0.00 | 0.08 | 0.08 | 41 | 1011.5 |
| 20260505172306 | 25 | 97 | 3.2 | 11.3 | 0.00 | 0.08 | 0.08 | 45 | 1011.5 |
| 20260505171758 | 25 | 340 | 6.4 | 11.3 | 0.00 | 0.08 | 0.08 | 40 | 1011.6 |
| 20260505171255 | 25 | 163 | 6.4 | 22.5 | 0.00 | 0.08 | 0.08 | 43 | 1011.6 |
| 20260505170752 | 25 | 41 | 3.2 | 9.7 | 0.00 | 0.08 | 0.08 | 45 | 1011.8 |
| 20260505170249 | 23 | 39 | 1.6 | 8.0 | 0.00 | 0.08 | 0.08 | 46 | 1011.7 |
| 20260505165744 | 23 | 3 | 0.0 | 8.0 | 0.00 | 0.08 | 0.08 | 49 | 1011.9 |
| 20260505165240 | 23 | 9 | 3.2 | 4.8 | 0.00 | 0.08 | 0.08 | 44 | 1011.9 |
| 20260505164736 | 23 | 265 | 8.0 | 12.9 | 0.00 | 0.08 | 0.08 | 43 | 1012.0 |
| 20260505164233 | 24 | 37 | 1.6 | 8.0 | 0.00 | 0.08 | 0.08 | 46 | 1011.9 |
| 20260505163731 | 24 | 321 | 1.6 | 4.8 | 0.00 | 0.08 | 0.08 | 48 | 1012.0 |
| 20260505163230 | 23 | 32 | 1.6 | 12.9 | 0.00 | 0.08 | 0.08 | 45 | 1012.1 |
| 20260505162727 | 25 | 250 | 4.8 | 11.3 | 0.00 | 0.08 | 0.08 | 43 | 1012.0 |
| 20260505162224 | 25 | 216 | 8.0 | 14.5 | 0.00 | 0.08 | 0.08 | 45 | 1012.1 |
| 20260505161720 | 23 | 328 | 4.8 | 11.3 | 0.00 | 0.08 | 0.08 | 44 | 1012.2 |
| 20260505161218 | 24 | 127 | 6.4 | 14.5 | 0.00 | 0.08 | 0.08 | 43 | 1012.2 |
| 20260505160715 | 24 | 323 | 3.2 | 11.3 | 0.00 | 0.08 | 0.08 | 45 | 1012.4 |
| 20260505160213 | 25 | 243 | 4.8 | 9.7 | 0.00 | 0.08 | 0.08 | 47 | 1012.4 |
| 20260505153152 | 23 | 304 | 4.8 | 9.7 | 0.00 | 0.08 | 0.08 | 47 | 1012.6 |
| 20260505152649 | 23 | 236 | 1.6 | 11.3 | 0.00 | 0.08 | 0.08 | 48 | 1012.6 |
| 20260505152145 | 23 | 326 | 3.2 | 9.7 | 0.00 | 0.08 | 0.08 | 53 | 1012.7 |
| 20260505151640 | 23 | 278 | 4.8 | 9.7 | 0.00 | 0.08 | 0.08 | 51 | 1012.8 |
| 20260505151138 | 23 | 278 | 4.8 | 11.3 | 0.00 | 0.08 | 0.08 | 47 | 1012.7 |
| 20260505150633 | 23 | 164 | 3.2 | 9.7 | 0.00 | 0.08 | 0.08 | 49 | 1012.9 |
| 20260505150131 | 23 | 137 | 6.4 | 9.7 | 0.00 | 0.08 | 0.08 | 48 | 1012.8 |
| 20260505140559 | 22 | 277 | 6.4 | 11.3 | 0.00 | 0.08 | 0.08 | 50 | 1013.4 |
| 20260505125013 | 18 | 141 | 3.2 | 4.8 | 0.00 | 0.08 | 0.08 | 64 | 1013.6 |
| 20260505124509 | 18 | 349 | 3.2 | 11.3 | 0.00 | 0.08 | 0.08 | 67 | 1013.3 |
| 20260505124006 | 18 | 53 | 1.6 | 8.0 | 0.00 | 0.08 | 0.08 | 63 | 1013.1 |
| 20260505123503 | 18 | 83 | 1.6 | 4.8 | 0.00 | 0.08 | 0.08 | 64 | 1013.3 |
| 20260505122958 | 18 | 276 | 4.8 | 4.8 | 0.00 | 0.08 | 0.08 | 65 | 1013.2 |
| 20260505122456 | 18 | 277 | 3.2 | 8.0 | 0.00 | 0.08 | 0.08 | 67 | 1013.1 |
| 20260505121953 | 17 | 212 | 3.2 | 4.8 | 0.00 | 0.08 | 0.08 | 65 | 1013.1 |
| 20260505121449 | 17 | 164 | 3.2 | 4.8 | 0.00 | 0.08 | 0.08 | 68 | 1013.1 |
| 20260505120945 | 17 | 244 | 4.8 | 8.0 | 0.00 | 0.08 | 0.08 | 68 | 1013.2 |
| 20260505120442 | 16 | 111 | 3.2 | 4.8 | 0.00 | 0.08 | 0.08 | 69 | 1013.3 |
| 20260505115941 | 16 | 5 | 0.0 | 11.3 | 0.00 | 0.08 | 0.08 | 70 | 1013.4 |
| 20260505115438 | 16 | 244 | 8.0 | 11.3 | 0.00 | 0.08 | 0.08 | 69 | 1013.4 |
| 20260505114936 | 16 | 147 | 3.2 | 4.8 | 0.00 | 0.08 | 0.08 | 70 | 1013.4 |
| 20260505114431 | 16 | 10 | 1.6 | 3.2 | 0.00 | 0.08 | 0.08 | 75 | 1013.3 |
| 20260505113928 | 15 | 337 | 4.8 | 4.8 | 0.00 | 0.08 | 0.08 | 74 | 1013.3 |
| 20260505113425 | 15 | 351 | 1.6 | 4.8 | 0.00 | 0.08 | 0.08 | 77 | 1013.4 |
| 20260505112921 | 14 | 359 | 1.6 | 8.0 | 0.00 | 0.08 | 0.08 | 78 | 1013.4 |
| 20260505112419 | 14 | 20 | 1.6 | 1.6 | 0.00 | 0.08 | 0.08 | 81 | 1013.2 |
| 20260505111914 | 13 | 39 | 1.6 | 3.2 | 0.00 | 0.08 | 0.08 | 81 | 1013.3 |
| 20260505111409 | 13 | 10 | 1.6 | 1.6 | 0.00 | 0.08 | 0.08 | 81 | 1013.4 |
| 20260505110906 | 13 | 5 | 1.6 | 3.2 | 0.00 | 0.08 | 0.08 | 83 | 1013.2 |
| 20260505110403 | 12 | 20 | 0.0 | 0.0 | 0.00 | 0.08 | 0.08 | 83 | 1013.3 |
| 20260505101827 | 11 | 25 | 0.0 | 0.0 | 0.00 | 0.08 | 0.08 | 90 | 1012.9 |
| 20260505101322 | 11 | 25 | 0.0 | 1.6 | 0.00 | 0.08 | 0.08 | 89 | 1012.9 |
| 20260505100818 | 11 | 24 | 1.6 | 1.6 | 0.00 | 0.08 | 0.08 | 89 | 1012.8 |
| 20260505100315 | 11 | 42 | 0.0 | 1.6 | 0.00 | 0.08 | 0.08 | 88 | 1012.9 |
| 20260505095811 | 11 | 42 | 0.0 | 1.6 | 0.00 | 0.08 | 0.08 | 87 | 1012.8 |
| 20260505095309 | 11 | 31 | 0.0 | 1.6 | 0.00 | 0.08 | 0.08 | 87 | 1012.6 |
| 20260505094804 | 11 | 31 | 0.0 | 1.6 | 0.00 | 0.08 | 0.08 | 86 | 1012.5 |
| 20260505094302 | 11 | 12 | 0.0 | 1.6 | 0.00 | 0.08 | 0.08 | 87 | 1012.6 |
| 20260505093757 | 11 | 22 | 0.0 | 3.2 | 0.00 | 0.08 | 0.08 | 88 | 1012.8 |
| 20260505093255 | 11 | 26 | 0.0 | 1.6 | 0.00 | 0.08 | 0.08 | 88 | 1012.5 |
| 20260505092751 | 11 | 31 | 1.6 | 4.8 | 0.00 | 0.08 | 0.08 | 88 | 1012.7 |
| 20260505092250 | 12 | 46 | 1.6 | 9.7 | 0.00 | 0.08 | 0.08 | 88 | 1012.6 |
| 20260505091747 | 12 | 19 | 1.6 | 1.6 | 0.00 | 0.08 | 0.08 | 89 | 1012.5 |
| 20260505091245 | 12 | 44 | 1.6 | 4.8 | 0.30 | 0.08 | 0.08 | 89 | 1012.5 |
| 20260505090742 | 12 | 168 | 4.8 | 8.0 | 0.48 | 0.08 | 0.08 | 88 | 1012.4 |
| 20260505090240 | 12 | 43 | 1.6 | 8.0 | 0.18 | 0.03 | 0.03 | 85 | 1012.6 |
| 20260505085737 | 12 | 156 | 3.2 | 9.7 | 0.00 | 0.00 | 0.00 | 81 | 1012.6 |
| 20260505085235 | 12 | 14 | 0.0 | 1.6 | 0.00 | 0.00 | 0.00 | 85 | 1012.7 |
| 20260505084732 | 12 | 6 | 1.6 | 3.2 | 0.00 | 0.00 | 0.00 | 81 | 1012.8 |
| 20260505084231 | 13 | 37 | 3.2 | 11.3 | 0.00 | 0.00 | 0.00 | 71 | 1012.5 |
| 20260505083728 | 12 | 31 | 0.0 | 1.6 | 0.00 | 0.00 | 0.00 | 72 | 1012.5 |
| 20260505083224 | 12 | 15 | 0.0 | 1.6 | 0.00 | 0.00 | 0.00 | 71 | 1012.5 |
| 20260505082720 | 12 | 14 | 0.0 | 1.6 | 0.00 | 0.00 | 0.00 | 72 | 1012.4 |
| 20260505082218 | 12 | 35 | 0.0 | 1.6 | 0.00 | 0.00 | 0.00 | 71 | 1012.5 |
| 20260505081713 | 12 | 23 | 0.0 | 0.0 | 0.00 | 0.00 | 0.00 | 72 | 1012.5 |